This demonstration page uses our WeatherBlox Daily Observations layout. Learn more.

39.92423, -83.80882

Hourly Observations for April 22, 2019

Temp ( °F °C ) Dew Point ( °F °C ) Humidity (%) Winds ( mph kmh ) Pressure ( in mb ) Visibility ( mi km ) Precip ( " mm )
12:56 am 00:56 Clear 47 8.3 45 7.2 93 93 ESE 7 11 30.21 1023 10 16.0934 0 0
1:56 am 01:56 Clear 46 7.8 44 6.7 93 93 SE 7 11 30.21 1023 10 16.0934 0 0
2:56 am 02:56 Clear 44 6.7 43 6.1 96 96 SE 3 6 30.19 1023 10 16.0934 0 0
3:56 am 03:56 Clear 46 7.8 44 6.7 93 93 Calm 30.2 1023 10 16.0934 0 0
4:56 am 04:56 Clear 41 5 41 5 100 100 ESE 5 7 30.22 1023 10 16.0934 0 0
5:56 am 05:56 Clear 40 4.4 40 4.4 100 100 SSE 3 6 30.22 1023 9 14.48406 0 0
6:56 am 06:56 Sunny with Mist and Fog 40 4.4 40 4.4 100 100 E 3 6 30.23 1024 4 6.43736 0 0
7:56 am 07:56 Sunny 45 7.2 45 7.2 100 100 ESE 5 7 30.24 1024 10 16.0934 0 0
8:56 am 08:56 Sunny 52 11.1 47 8.3 83 83 S 6 9 30.25 1024 10 16.0934 0 0
9:56 am 09:56 Sunny 56 13.3 47 8.3 72 72 S 6 9 30.25 1025 10 16.0934 0 0
10:56 am 10:56 Sunny 60 15.6 46 7.8 60 60 VRB 7 11 30.25 1025 10 16.0934 0 0
11:56 am 11:56 Sunny 62 16.7 46 7.8 56 56 SE 7 11 30.25 1024 10 16.0934 0 0
12:56 pm 12:56 Sunny 65 18.3 45 7.2 49 49 SSE 8 13 30.22 1023 10 16.0934 0.01 0.254
1:56 pm 13:56 Sunny 66 18.9 47 8.3 50 50 S 10 17 30.19 1022 10 16.0934 0 0
2:56 pm 14:56 Sunny 68 20 45 7.2 44 44 SE 9 15 30.19 1022 10 16.0934 0.01 0.254
3:56 pm 15:56 Sunny 70 21.1 44 6.7 39 39 S 9 15 30.16 1021 10 16.0934 0 0
4:56 pm 16:56 Sunny 71 21.7 44 6.7 38 38 SSW 6 9 30.14 1021 10 16.0934 0 0
5:56 pm 17:56 Sunny 70 21.1 43 6.1 38 38 S 8 13 30.13 1020 10 16.0934 0 0
6:56 pm 18:56 Sunny 69 20.6 46 7.8 44 44 S 5 7 30.12 1020 10 16.0934 0.01 0.254
7:56 pm 19:56 Sunny 66 18.9 47 8.3 50 50 SSE 8 13 30.1 1019 10 16.0934 0 0
8:56 pm 20:56 Clear 64 17.8 45 7.2 50 50 S 5 7 30.09 1019 10 16.0934 0 0
9:44 pm 21:44 Hazy 63 17 45 7 52 52 S 7 11 30.06 1018 0.5 0.80467 0 0
9:47 pm 21:47 Clear 63 17 45 7 52 52 SSE 7 11 30.06 1018 10 16.0934 0 0
9:56 pm 21:56 Clear 61 16.1 45 7.2 56 56 SSE 7 11 30.08 1019 10 16.0934 0 0
10:56 pm 22:56 Clear 60 15.6 44 6.7 56 56 SSE 8 13 30.07 1018 10 16.0934 0.01 0.254
11:56 pm 23:56 Clear 61 16.1 43 6.1 52 52 SSE 6 9 30.06 1018 10 16.0934 0 0

Powered by AerisWeather